Location: B?dimalle
(17.1788°N, 80.5377°E)
Time: 14:34:11
(UTC+00:00)

Tiros 1 - Visible Passes

Search period start: 10 February 2026 00:00
Search period end: 20 February 2026 00:00
Orbit: 619 x 649 km, 48.4° (Epoch: 10 February)

Date Brightness Start Highest point End Pass type
(mag) Time Alt. Az. Time Alt. Az. Time Alt. Az.
10 Feb 7.9 14:18:12 10° NW 14:22:37 47° SW 14:24:09 34° S visible
11 Feb 7.5 12:58:09 10° NNW 13:02:29 42° NE 13:06:51 10° ESE visible
11 Feb 9.7 14:41:12 10° W 14:44:07 17° SW 14:47:01 10° SSW visible
12 Feb 7.5 13:19:35 10° NW 13:24:07 67° SW 13:28:42 10° SSE visible
13 Feb 9.5 13:42:03 10° WNW 13:45:38 23° SW 13:49:15 10° S visible
16 Feb 10.5 13:07:42 10° WSW 13:08:37 11° SW 13:09:33 10° SW visible
18 Feb 9.9 00:03:54 10° S 00:07:11 19° SE 00:10:26 10° E visible
19 Feb 7.9 00:24:07 10° SSW 00:28:40 54° SE 00:33:11 10° NE visible
19 Feb 10.0 23:06:18 10° SSE 23:08:40 14° SE 23:11:02 10° E visible
